Location: Cadenet
(43.7345°N, 5.3750°E)
Time: 19:07:05
(UTC+00:00)

USA 215 - Pass Details

Date: 18 February 2020
Orbit: 1098 x 1110 km, 123.0° (Epoch: 08 March)

Event Time Altitude Azimuth Distance (km) Brightness Sun altitude
Rises 04:12:44 0° 55° (NE) 3,921 7.2 -26.1°
Reaches altitude 10° 04:15:29 10° 46° (NE) 2,964 6.2 -25.6°
Maximum altitude 04:21:04 31° 347° (NNW) 1,823 4.3 -24.6°
Enters shadow 04:22:54 27° 319° (NW) 1,981 4.3 -24.3°
